• In Moldova, Republic
  • List of Countries
  • For 7 days
  • Water Temperature
  • Satellite Maps
  • Weather Map
  • Weather Widgets
  • user-avatar
    Login

    Hourly Weather Bushevka (Morozovichi)

    Today, 16 July, Monday

    Time Temperature Precipitation Wind Pressure Humidity
    00:00 +18°C° 0 mm 2 mps 743 mmHg 94%
    01:00 +17°C° 0 mm 2 mps 742 mmHg 94%
    02:00 +18°C° 0 mm 1 mps 743 mmHg 95%
    03:00 +17°C° 0 mm 2 mps 742 mmHg 95%
    04:00 +17°C° 0 mm 2 mps 742 mmHg 96%
    05:00 +17°C° 0 mm 2 mps 742 mmHg 96%
    06:00 +18°C° 0.2 mm 2 mps 742 mmHg 94%
    07:00 +19°C° 0.2 mm 2 mps 742 mmHg 92%
    08:00 +20°C° 0.2 mm 2 mps 742 mmHg 89%
    09:00 +20°C° 0.5 mm 2 mps 742 mmHg 88%
    10:00 +21°C° 0.5 mm 2 mps 742 mmHg 87%
    11:00 +21°C° 0.5 mm 2 mps 741 mmHg 86%
    12:00 +24°C° 0.4 mm 2 mps 741 mmHg 80%
    13:00 +25°C° 0.4 mm 2 mps 741 mmHg 74%
    14:00 +26°C° 0.4 mm 2 mps 741 mmHg 69%
    15:00 +26°C° 0.8 mm 2 mps 741 mmHg 70%
    16:00 +26°C° 0.8 mm 2 mps 741 mmHg 72%
    17:00 +26°C° 0.8 mm 2 mps 740 mmHg 74%
    18:00 +25°C° 0.4 mm 2 mps 740 mmHg 79%
    19:00 +23°C° 0.4 mm 2 mps 740 mmHg 84%
    20:00 +21°C° 0.4 mm 2 mps 740 mmHg 89%
    21:00 +21°C° 0 mm 2 mps 740 mmHg 90%
    22:00 +21°C° 0 mm 1 mps 740 mmHg 91%
    23:00 +21°C° 0 mm 1 mps 740 mmHg 93%

    Tomorrow, 17 July, Tuesday

    Time Temperature Precipitation Wind Pressure Humidity
    00:00 +21°C° 0.2 mm 1 mps 740 mmHg 94%
    01:00 +21°C° 0.2 mm 1 mps 740 mmHg 95%
    02:00 +20°C° 0.2 mm 1 mps 740 mmHg 96%
    03:00 +20°C° 0.3 mm 1 mps 740 mmHg 96%
    04:00 +20°C° 0.3 mm 1 mps 739 mmHg 96%
    05:00 +20°C° 0.3 mm 1 mps 739 mmHg 96%
    06:00 +20°C° 0.6 mm 2 mps 739 mmHg 96%
    07:00 +20°C° 0.6 mm 2 mps 739 mmHg 96%
    08:00 +20°C° 0.6 mm 2 mps 739 mmHg 95%
    09:00 +21°C° 0.6 mm 2 mps 739 mmHg 93%
    10:00 +23°C° 0.6 mm 2 mps 739 mmHg 91%
    11:00 +24°C° 0.6 mm 2 mps 739 mmHg 89%
    12:00 +24°C° 0.7 mm 2 mps 739 mmHg 87%
    13:00 +25°C° 0.7 mm 2 mps 739 mmHg 84%
    14:00 +25°C° 0.7 mm 2 mps 739 mmHg 82%
    15:00 +25°C° 1.1 mm 2 mps 739 mmHg 83%
    16:00 +25°C° 1.1 mm 2 mps 739 mmHg 84%
    17:00 +25°C° 1.1 mm 2 mps 739 mmHg 85%
    18:00 +25°C° 0.9 mm 2 mps 739 mmHg 88%
    19:00 +24°C° 0.9 mm 2 mps 738 mmHg 90%
    20:00 +23°C° 0.9 mm 2 mps 738 mmHg 92%
    21:00 +23°C° 0.5 mm 2 mps 738 mmHg 93%
    22:00 +21°C° 0.5 mm 2 mps 738 mmHg 94%
    23:00 +21°C° 0.5 mm 3 mps 738 mmHg 96%

    Day after tomorrow, 18 July, Wednesday

    Time Temperature Precipitation Wind Pressure Humidity
    00:00 +21°C° 0.2 mm 3 mps 738 mmHg 96%
    01:00 +20°C° 0.2 mm 3 mps 738 mmHg 97%
    02:00 +20°C° 0.2 mm 3 mps 738 mmHg 97%
    03:00 +20°C° 0 mm 3 mps 738 mmHg 97%
    04:00 +20°C° 0 mm 3 mps 738 mmHg 98%
    05:00 +20°C° 0 mm 3 mps 738 mmHg 98%
    06:00 +21°C° 0 mm 3 mps 738 mmHg 95%
    07:00 +22°C° 0 mm 4 mps 738 mmHg 93%
    08:00 +22°C° 0 mm 4 mps 738 mmHg 91%
    09:00 +23°C° 0.1 mm 4 mps 738 mmHg 88%
    10:00 +25°C° 0.1 mm 4 mps 738 mmHg 86%
    11:00 +25°C° 0.1 mm 4 mps 738 mmHg 83%
    12:00 +25°C° 0.1 mm 4 mps 738 mmHg 81%
    13:00 +26°C° 0.1 mm 4 mps 738 mmHg 79%
    14:00 +26°C° 0.1 mm 4 mps 738 mmHg 78%
    15:00 +26°C° 0 mm 4 mps 738 mmHg 78%
    16:00 +26°C° 0 mm 4 mps 738 mmHg 77%
    17:00 +26°C° 0 mm 4 mps 738 mmHg 77%
    18:00 +25°C° 0 mm 3 mps 738 mmHg 81%
    19:00 +24°C° 0 mm 3 mps 738 mmHg 85%
    20:00 +23°C° 0 mm 2 mps 738 mmHg 90%
    21:00 +21°C° 0 mm 2 mps 738 mmHg 92%
    22:00 +20°C° 0 mm 2 mps 738 mmHg 94%
    23:00 +19°C° 0 mm 2 mps 738 mmHg 96%

    19 July, Thursday

    Time Temperature Precipitation Wind Pressure Humidity
    00:00 +19°C° 0 mm 2 mps 738 mmHg 96%
    01:00 +19°C° 0 mm 2 mps 738 mmHg 97%
    02:00 +18°C° 0 mm 2 mps 738 mmHg 97%
    03:00 +18°C° 0 mm 2 mps 738 mmHg 97%
    04:00 +18°C° 0 mm 2 mps 739 mmHg 97%
    05:00 +18°C° 0 mm 2 mps 739 mmHg 97%
    06:00 +19°C° 0 mm 2 mps 739 mmHg 93%
    07:00 +21°C° 0 mm 2 mps 739 mmHg 88%
    08:00 +23°C° 0 mm 2 mps 739 mmHg 84%
    09:00 +24°C° 0.2 mm 2 mps 739 mmHg 80%
    10:00 +24°C° 0.2 mm 2 mps 739 mmHg 77%
    11:00 +25°C° 0.2 mm 2 mps 739 mmHg 73%
    12:00 +26°C° 0.6 mm 2 mps 738 mmHg 70%
    13:00 +27°C° 0.6 mm 2 mps 738 mmHg 67%
    14:00 +28°C° 0.6 mm 3 mps 738 mmHg 64%
    15:00 +27°C° 0.5 mm 3 mps 738 mmHg 68%
    16:00 +26°C° 0.5 mm 3 mps 738 mmHg 72%
    17:00 +26°C° 0.5 mm 3 mps 738 mmHg 76%
    18:00 +25°C° 0.3 mm 3 mps 738 mmHg 81%
    19:00 +22°C° 0.3 mm 3 mps 738 mmHg 87%
    20:00 +21°C° 0.3 mm 2 mps 738 mmHg 92%
    21:00 +20°C° 0 mm 2 mps 738 mmHg 93%
    22:00 +20°C° 0 mm 2 mps 739 mmHg 95%
    23:00 +19°C° 0 mm 2 mps 739 mmHg 96%

    20 July, Friday

    Time Temperature Precipitation Wind Pressure Humidity
    00:00 +19°C° 0 mm 2 mps 739 mmHg 96%
    01:00 +19°C° 0 mm 2 mps 739 mmHg 97%
    02:00 +18°C° 0 mm 2 mps 739 mmHg 97%
    03:00 +18°C° 0.1 mm 2 mps 739 mmHg 97%
    04:00 +18°C° 0.1 mm 2 mps 739 mmHg 98%
    05:00 +18°C° 0.1 mm 2 mps 739 mmHg 98%
    06:00 +19°C° 0 mm 3 mps 739 mmHg 95%
    07:00 +20°C° 0 mm 3 mps 740 mmHg 92%
    08:00 +21°C° 0 mm 3 mps 740 mmHg 89%
    09:00 +22°C° 0.1 mm 3 mps 740 mmHg 86%
    10:00 +24°C° 0.1 mm 3 mps 740 mmHg 82%
    11:00 +25°C° 0.1 mm 2 mps 740 mmHg 78%
    12:00 +26°C° 0.4 mm 2 mps 740 mmHg 75%
    13:00 +26°C° 0.4 mm 2 mps 740 mmHg 72%
    14:00 +27°C° 0.4 mm 2 mps 739 mmHg 69%
    15:00 +27°C° 0.7 mm 2 mps 739 mmHg 70%
    16:00 +27°C° 0.7 mm 2 mps 739 mmHg 72%
    17:00 +27°C° 0.7 mm 2 mps 739 mmHg 73%
    18:00 +26°C° 0.5 mm 2 mps 740 mmHg 78%
    19:00 +24°C° 0.5 mm 2 mps 740 mmHg 82%
    20:00 +23°C° 0.5 mm 1 mps 740 mmHg 87%
    21:00 +22°C° 0 mm 1 mps 740 mmHg 89%
    22:00 +22°C° 0 mm 1 mps 740 mmHg 91%
    23:00 +21°C° 0 mm 1 mps 740 mmHg 93%

    21 July, Saturday

    Time Temperature Precipitation Wind Pressure Humidity
    00:00 +21°C° 0 mm 1 mps 740 mmHg 93%
    01:00 +20°C° 0 mm 1 mps 740 mmHg 94%
    02:00 +20°C° 0 mm 1 mps 740 mmHg 95%
    03:00 +20°C° 0 mm 1 mps 740 mmHg 95%
    04:00 +20°C° 0 mm 1 mps 740 mmHg 96%
    05:00 +20°C° 0 mm 1 mps 740 mmHg 96%
    06:00 +21°C° 0.1 mm 1 mps 740 mmHg 92%
    07:00 +23°C° 0.1 mm 2 mps 741 mmHg 88%
    08:00 +24°C° 0.1 mm 2 mps 741 mmHg 84%
    09:00 +25°C° 0.6 mm 2 mps 741 mmHg 80%
    10:00 +26°C° 0.6 mm 2 mps 741 mmHg 75%
    11:00 +27°C° 0.6 mm 2 mps 740 mmHg 70%
    12:00 +28°C° 1.3 mm 3 mps 740 mmHg 71%
    13:00 +28°C° 1.3 mm 3 mps 740 mmHg 71%
    14:00 +28°C° 1.3 mm 3 mps 740 mmHg 71%
    15:00 +28°C° 1.3 mm 3 mps 740 mmHg 75%
    16:00 +27°C° 1.3 mm 3 mps 740 mmHg 78%
    17:00 +26°C° 1.3 mm 3 mps 740 mmHg 81%
    18:00 +25°C° 0.3 mm 3 mps 740 mmHg 85%
    19:00 +24°C° 0.3 mm 3 mps 740 mmHg 88%
    20:00 +22°C° 0.3 mm 3 mps 740 mmHg 91%
    21:00 +22°C° 0 mm 3 mps 740 mmHg 92%
    22:00 +21°C° 0 mm 2 mps 740 mmHg 94%
    23:00 +21°C° 0 mm 2 mps 740 mmHg 95%
    Show more